Weather observations for the past three days for
Elizabethton Municipal Airport
Imperial (Metric)
Date Time (edt) Wind (mph) Vis. (mi.) Weather Sky Cond. Temperature (ºF) Relative Humidity Wind Chill (°F) Heat Index (°F) Pressure Precipitation (in)
Air Dwpt 6 hour altimeter (in) sea level (mb) 1 hr 3 hr 6 hr
Max. Min.
09 19:15 NW 5 10.00 NULL NULL 71.6 48.2 44% 29.86 0.0
09 18:55 W 5 10.00 NULL NULL 71.6 48.2 44% 29.86 0.0
09 18:35 SW 9 10.00 NULL NULL 73.4 48.2 41% 29.86 0.0
09 18:15 W 8 G 15 10.00 NULL NULL 71.6 48.2 44% 29.86 0.0
09 17:55 NW 10 10.00 NULL NULL 71.6 48.2 44% 29.85 0.0
09 17:35 Vrbl 7 10.00 Mostly Cloudy SCT060 BKN070 71.6 48.2 44% 29.85 0.0
09 17:15 W 12 G 17 10.00 Mostly Cloudy SCT055 BKN070 73.4 48.2 41% 29.85 0.0
09 16:55 W 8 10.00 Mostly Cloudy BKN055 BKN065 69.8 50 50% 29.85 0.0
09 16:35 W 8 G 20 10.00 Partly Cloudy FEW050 SCT065 71.6 50 47% 29.85 0.0
09 16:15 SW 10 10.00 Mostly Cloudy SCT050 BKN060 BKN065 71.6 50 47% 29.84 0.0
09 15:55 W 9 10.00 Partly Cloudy FEW050 SCT060 71.6 50 47% 29.86 0.0
09 15:35 W 9 10.00 Mostly Cloudy BKN065 71.6 51.8 50% 29.86 0.0
09 15:15 Vrbl 7 G 15 10.00 Mostly Cloudy SCT055 BKN065 71.6 50 47% 29.86 0.0
09 14:55 W 10 G 18 10.00 Mostly Cloudy SCT050 BKN060 BKN070 71.6 48.2 44% 29.85 0.0
09 14:35 W 13 G 20 10.00 Mostly Cloudy FEW047 BKN055 BKN070 71.6 50 47% 29.86 0.0
09 14:15 W 8 G 18 10.00 Partly Cloudy FEW044 SCT050 71.6 51.8 50% 29.86 0.0
09 13:55 NW 10 10.00 A Few Clouds FEW044 FEW049 69.8 51.8 53% 29.86 0.0
09 13:15 W 9 10.00 A Few Clouds FEW039 FEW050 69.8 51.8 53% 29.87 0.0
09 12:55 W 12 G 17 10.00 A Few Clouds FEW039 69.8 51.8 53% 29.88 0.0
09 12:35 Vrbl 7 G 16 10.00 NULL NULL 68 51.8 56% 29.88 0.0
09 12:15 NW 9 10.00 Mostly Cloudy BKN038 BKN045 68 51.8 56% 29.89 0.0
09 11:55 Vrbl 7 10.00 NULL NULL 66.2 50 56% 29.89 0.0
09 11:35 Vrbl 7 10.00 Fair CLR 66.2 50 56% 29.88 0.0
09 11:15 W 7 G 14 10.00 A Few Clouds FEW070 66.2 50 56% 29.88 0.0
09 10:55 W 6 G 15 10.00 Mostly Cloudy SCT047 BKN070 64.4 48.2 56% 29.88 0.0
09 10:35 W 5 10.00 Overcast OVC049 64.4 48.2 56% 29.88 0.0
09 10:15 Calm 10.00 Overcast OVC050 62.6 48.2 60% 29.88 0.0
09 09:55 Calm 10.00 Overcast OVC048 60.8 48.2 63% 29.88 0.0
09 09:35 Calm 10.00 Mostly Cloudy BKN048 60.8 50 68% 29.88 0.0
09 09:15 Calm 10.00 Fair CLR 59 50 72% 29.88 0.0
09 08:55 Vrbl 3 10.00 Fair CLR 55.4 50 82% 29.88 0.0
09 08:35 E 5 10.00 Fair CLR 55.4 50 82% 29.89 0.0
09 08:15 Calm 10.00 Fair CLR 53.6 50 88% 29.9 0.0
09 07:55 Calm 10.00 A Few Clouds FEW100 51.8 50 94% 29.91 0.0
09 07:35 Calm 10.00 A Few Clouds FEW100 50 48.2 94% 29.92 0.0
09 07:15 Calm 10.00 Fair CLR 50 48.2 94% 29.91 0.0
09 06:55 Calm 10.00 Fair CLR 50 48.2 94% 29.9 0.0
09 06:35 Calm 10.00 Fair CLR 50 48.2 94% 29.89 0.0
09 06:15 Calm 10.00 Fair CLR 48.2 48.2 100% 29.88 0.0
09 05:55 Calm 10.00 Fair CLR 48.2 48.2 100% 29.89 0.0
09 05:35 Calm 10.00 Fair CLR 46.4 46.4 100% 29.88 0.0
09 05:15 Calm 10.00 Fair CLR 48.2 46.4 94% 29.88 0.0
09 04:55 Calm 10.00 Fair CLR 46.4 46.4 100% 29.88 0.0
09 04:35 Calm 10.00 Fair CLR 48.2 46.4 94% 29.88 0.0
09 04:15 Calm 10.00 Fair CLR 48.2 46.4 94% 29.89 0.0
09 03:55 Calm 10.00 Fair CLR 46.4 46.4 100% 29.88 0.0
09 03:35 Calm 10.00 Fair CLR 46.4 46.4 100% 29.89 0.0
09 03:15 Calm 10.00 Fair CLR 46.4 46.4 100% 29.89 0.0
09 02:55 Calm 10.00 Fair CLR 46.4 46.4 100% 29.9 0.0
09 02:35 Calm 10.00 Fair CLR 46.4 46.4 100% 29.91 0.0
09 02:15 Calm 10.00 A Few Clouds FEW046 46.4 46.4 100% 29.91 0.0
09 01:55 Calm 10.00 Mostly Cloudy BKN046 46.4 46.4 100% 29.92 0.0
09 01:35 Calm 10.00 Mostly Cloudy BKN046 46.4 46.4 100% 29.93 0.0
09 01:15 Calm 10.00 Partly Cloudy SCT046 48.2 46.4 94% 29.94 0.0
09 00:35 Calm 10.00 A Few Clouds FEW048 48.2 46.4 94% 29.93 0.0
09 00:15 Calm 10.00 A Few Clouds FEW047 48.2 46.4 94% 29.93 0.0
08 23:55 Calm 10.00 A Few Clouds FEW048 50 46.4 88% 29.94 0.0
08 23:35 Calm 10.00 A Few Clouds FEW048 50 46.4 88% 29.94 0.0
08 23:15 Calm 10.00 Partly Cloudy SCT050 50 48.2 94% 29.94 0.0
08 22:55 Calm 10.00 Partly Cloudy FEW041 SCT050 50 46.4 88% 29.94 0.0
08 22:35 Calm 10.00 Partly Cloudy SCT050 SCT055 51.8 46.4 82% 29.94 0.0
08 22:15 Calm 10.00 Partly Cloudy SCT050 SCT060 53.6 46.4 77% 29.94 0.0
08 21:55 Calm 10.00 Partly Cloudy SCT050 SCT055 51.8 46.4 82% 29.94 0.0
08 21:35 Calm 10.00 Partly Cloudy FEW047 SCT055 53.6 46.4 77% 29.93 0.0
08 21:15 Calm 10.00 Partly Cloudy SCT060 SCT070 53.6 46.4 77% 29.93 0.0
08 20:55 Calm 10.00 Partly Cloudy SCT055 55.4 46.4 72% 29.92 0.0
08 20:35 NW 5 10.00 Fair CLR 55.4 48.2 77% 29.92 0.0
08 20:15 NW 6 10.00 A Few Clouds FEW070 57.2 48.2 72% 29.92 0.0
08 19:55 W 5 10.00 Fair CLR 64.4 42.8 46% 29.91 0.0
08 19:35 NW 3 10.00 Fair CLR 66.2 44.6 46% 29.91 0.0
08 19:15 Calm 10.00 Fair CLR 68 39.2 35% 29.91 0.0
08 18:55 NW 3 10.00 Fair CLR 68 39.2 35% 29.91 0.0
08 18:35 W 7 10.00 Fair CLR 69.8 37.4 31% 29.91 0.0
08 18:15 Vrbl 3 10.00 Fair CLR 69.8 37.4 31% 29.91 0.0
08 17:55 Vrbl 5 10.00 Fair CLR 69.8 37.4 31% 29.91 0.0
08 17:35 Vrbl 5 10.00 Fair CLR 69.8 37.4 31% 29.89 0.0
08 17:15 Calm 10.00 Fair CLR 69.8 37.4 31% 29.9 0.0
08 16:55 W 8 10.00 Fair CLR 69.8 37.4 31% 29.91 0.0
08 16:15 Vrbl 6 10.00 Fair CLR 69.8 39.2 33% 29.93 0.0
08 15:55 Vrbl 7 10.00 Fair CLR 69.8 37.4 31% 29.94 0.0
08 15:35 W 7 10.00 Fair CLR 69.8 39.2 33% 29.95 0.0
08 15:15 Calm 10.00 Fair CLR 68 39.2 35% 29.95 0.0
08 14:55 E 3 10.00 Fair CLR 66.2 37.4 35% 29.97 0.0
08 14:35 Calm 10.00 Fair CLR 66.2 39.2 37% 29.97 0.0
08 14:15 NW 5 10.00 Fair CLR 66.2 39.2 37% 29.98 0.0
08 13:55 Calm 10.00 Fair CLR 66.2 32 28% 29.98 0.0
08 13:15 S 6 10.00 Fair CLR 64.4 32 30% 30.01 0.0
08 12:55 Calm 10.00 Fair CLR 64.4 32 30% 30.02 0.0
08 12:35 Calm 10.00 Fair CLR 62.6 33.8 34% 30.03 0.0
08 11:55 Calm 10.00 Fair CLR 60.8 35.6 39% 30.05 0.0
08 11:35 Calm 10.00 Fair CLR 60.8 33.8 36% 30.06 0.0
08 11:15 Calm 10.00 Fair CLR 59 37.4 45% 30.06 0.0
08 10:55 Calm 10.00 Fair CLR 60.8 35.6 39% 30.07 0.0
08 10:35 Calm 10.00 Fair CLR 57.2 37.4 48% 30.07 0.0
08 10:15 Calm 10.00 Fair CLR 57.2 42.8 59% 30.07 0.0
08 09:55 Calm 10.00 Fair CLR 55.4 42.8 63% 30.08 0.0
08 09:35 Calm 10.00 Fair CLR 51.8 42.8 72% 30.08 0.0
08 09:15 Vrbl 5 10.00 Fair CLR 50 42.8 76% 49 30.08 0.0
08 08:55 E 5 10.00 Fair CLR 50 42.8 76% 49 30.08 0.0
08 08:35 E 3 10.00 Fair CLR 48.2 42.8 82% 30.07 0.0
08 08:15 Calm 10.00 Fair CLR 46.4 44.6 93% 30.07 0.0
08 07:55 E 6 10.00 Fair CLR 42.8 42.8 100% 40 30.07 0.0
08 07:35 Calm 10.00 Fair CLR 41 41 100% 30.06 0.0
08 07:15 Calm 10.00 Partly Cloudy FEW005 SCT009 41 41 100% 30.05 0.0
08 06:55 Calm 9.00 Partly Cloudy SCT005 SCT013 39.2 39.2 100% 30.04 0.0
08 06:35 Calm 10.00 Fair CLR 39.2 39.2 100% 30.03 0.0
08 06:15 Calm 8.00 Fair CLR 39.2 39.2 100% 30.03 0.0
08 05:55 Calm 10.00 Fair CLR 39.2 39.2 100% 30.02 0.0
08 05:35 Calm 10.00 Fair CLR 41 41 100% 30.02 0.0
08 05:15 Calm 10.00 A Few Clouds FEW007 41 41 100% 30.02 0.0
08 04:55 Calm 8.00 Partly Cloudy SCT007 41 41 100% 30.01 0.0
08 04:35 Calm 0.50 Fog/Mist VV005 42.8 42.8 100% 30.01 0.0
08 04:15 Calm 0.25 Fog BKN002 BKN047 42.8 42.8 100% 30.01 0.0
08 03:55 Calm 0.15 Fog OVC002 44.6 44.6 100% 30.01 0.0
08 03:35 Calm 9.00 Partly Cloudy FEW003 FEW008 SCT050 44.6 44.6 100% 30.01 0.0
08 03:15 Calm 8.00 Mostly Cloudy BKN003 BKN007 46.4 46.4 100% 30.01 0.0
08 02:55 Calm 5.00 Fog/Mist OVC003 46.4 46.4 100% 30.01 0.0
08 02:35 Calm 7.00 Overcast OVC004 46.4 46.4 100% 30.02 0.0
08 02:15 Calm 5.00 Fog/Mist OVC004 46.4 46.4 100% 30.02 0.0
08 01:35 Calm 4.00 Fog/Mist FEW006 BKN060 46.4 46.4 100% 30.01 0.0
08 01:15 Calm 5.00 Fog/Mist SCT006 SCT012 BKN055 46.4 46.4 100% 30.02 0.0
08 00:55 Calm 7.00 Mostly Cloudy FEW006 SCT012 BKN017 48.2 48.2 100% 30.01 0.0
08 00:35 Calm 10.00 Overcast FEW006 BKN014 OVC060 50 50 100% 30 0.0
08 00:15 Calm 10.00 Overcast OVC014 50 50 100% 30 0.0
07 23:55 Calm 10.00 Overcast BKN016 OVC025 50 50 100% 29.99 0.0
07 23:35 Calm 10.00 Overcast BKN018 OVC026 50 50 100% 29.99 0.0
07 23:15 Calm 10.00 Overcast BKN019 OVC025 50 50 100% 29.99 0.0
07 22:55 Calm 10.00 Overcast OVC024 50 50 100% 29.99 0.0
07 22:35 Calm 10.00 Overcast OVC023 50 50 100% 29.98 0.0
07 22:15 Calm 9.00 Overcast OVC023 50 48.2 94% 29.98 0.0
07 21:55 Calm 9.00 Overcast BKN025 BKN034 OVC050 48.2 48.2 100% 29.97 0.0
07 21:35 Calm 8.00 Mostly Cloudy FEW033 SCT042 BKN050 48.2 46.4 94% 29.96 0.0
07 21:15 Calm 9.00 Mostly Cloudy SCT033 BKN042 BKN047 48.2 48.2 100% 29.95 0.0
07 20:55 Calm 9.00 A Few Clouds FEW034 FEW046 48.2 48.2 100% 29.94 0.0
07 20:35 Calm 10.00 Fair CLR 50 50 100% 29.93 0.0
07 20:15 Calm 10.00 Fair CLR 51.8 50 94% 29.93 0.0
07 19:55 Calm 10.00 A Few Clouds FEW042 FEW060 53.6 50 88% 29.93 0.0
07 19:15 NW 3 10.00 Partly Cloudy SCT055 55.4 48.2 77% 29.94 0.0
07 18:55 W 8 10.00 Partly Cloudy FEW033 SCT055 57.2 48.2 72% 29.94 0.0
07 18:35 SW 5 10.00 Mostly Cloudy SCT050 BKN055 57.2 48.2 72% 29.94 0.0
07 18:15 W 5 10.00 Mostly Cloudy FEW021 FEW032 BKN050 55.4 48.2 77% 29.93 0.0
07 17:55 SW 7 10.00 Mostly Cloudy FEW018 SCT022 BKN049 55.4 48.2 77% 29.93 0.0
07 17:35 SW 7 10.00 Overcast FEW017 BKN042 OVC048 55.4 50 82% 29.92 0.0
07 17:15 W 6 10.00 Overcast OVC039 55.4 50 82% 29.92 0.0
07 16:55 W 3 10.00 Overcast OVC038 53.6 50 88% 29.92 0.0
07 16:35 W 8 10.00 Overcast FEW021 FEW026 OVC036 53.6 50 88% 29.92 0.0
07 16:15 W 7 10.00 Overcast FEW021 OVC036 55.4 50 82% 29.91 0.0
07 15:55 W 12 10.00 Overcast FEW021 OVC035 55.4 48.2 77% 29.91 0.0
07 15:35 W 5 10.00 Overcast FEW018 OVC034 55.4 50 82% 29.91 0.0
07 15:15 W 5 8.00 Overcast BKN016 BKN025 OVC033 53.6 50 88% 29.92 0.0
07 14:55 W 10 3.00 Fog/Mist FEW009 SCT013 OVC035 53.6 51.8 94% 29.92 0.0
07 14:35 W 9 2.50 Fog/Mist FEW013 BKN036 53.6 51.8 94% 29.93 0.0
07 14:15 W 7 2.50 Fog/Mist SCT009 BKN013 OVC037 53.6 51.8 94% 29.93 0.0
07 13:55 W 8 G 17 3.00 Fog/Mist OVC008 53.6 50 88% 29.93 0.0
07 13:35 W 10 G 16 9.00 Mostly Cloudy BKN008 BKN016 BKN028 53.6 51.8 94% 29.92 0.0
07 13:15 W 12 7.00 Mostly Cloudy BKN016 BKN031 55.4 51.8 88% 29.91 0.0
07 12:55 W 12 9.00 Overcast BKN015 OVC032 55.4 51.8 88% 29.9 0.0
07 12:35 W 14 10.00 Overcast OVC014 55.4 51.8 88% 29.91 0.0
07 12:15 W 7 10.00 Overcast OVC013 55.4 51.8 88% 29.91 0.0
07 11:55 W 6 10.00 Overcast OVC013 55.4 51.8 88% 29.9 0.0
07 11:35 W 3 10.00 Overcast OVC013 55.4 53.6 94% 29.9 0.0
07 11:15 W 5 4.00 Light Drizzle Fog/Mist OVC014 55.4 53.6 94% 29.89 0.0
07 10:55 W 8 G 14 10.00 Overcast OVC014 55.4 53.6 94% 29.89 0.0
07 10:35 Vrbl 5 10.00 Overcast OVC014 57.2 53.6 88% 29.88 0.0
07 10:15 W 7 10.00 Overcast OVC012 55.4 53.6 94% 29.89 0.0
07 09:35 W 6 10.00 Overcast OVC014 55.4 55.4 100% 29.88 0.0
07 09:15 W 6 10.00 Overcast BKN012 OVC019 55.4 55.4 100% 29.89 0.0
07 08:55 SW 8 10.00 Overcast SCT009 BKN018 OVC024 55.4 55.4 100% 29.88 0.0 0.01
07 08:35 SW 6 10.00 Overcast SCT009 OVC017 55.4 55.4 100% 29.87 0.0
07 08:15 S 6 3.00 Fog/Mist FEW006 BKN012 OVC018 55.4 55.4 100% 29.88 0.0
07 07:55 W 3 G 12 3.00 Fog/Mist SCT007 OVC012 55.4 55.4 100% 29.89 0.0 0.02
07 07:35 SW 9 2.00 Light Rain Fog/Mist BKN007 OVC013 55.4 55.4 100% 29.88 0.0
07 07:15 Calm 10.00 Light Rain BKN008 OVC013 57.2 55.4 94% 29.87 0.0
07 06:55 SW 7 10.00 Overcast OVC011 57.2 57.2 100% 29.86 0.0
07 06:35 SW 6 10.00 Overcast FEW006 BKN012 OVC024 57.2 57.2 100% 29.84 0.0
07 06:15 SW 7 10.00 Overcast FEW005 OVC024 57.2 57.2 100% 29.85 0.0
07 05:55 SW 7 10.00 Overcast OVC023 59 59 100% 29.84 0.0 0.01
07 05:35 S 3 10.00 Overcast FEW008 SCT020 OVC024 59 59 100% 29.83 0.0
07 05:15 NE 5 9.00 Light Rain SCT009 BKN027 OVC055 60.8 60.8 100% 29.84 0.0
07 04:55 Calm 6.00 Light Rain Fog/Mist SCT008 BKN011 OVC029 62.6 62.6 100% 29.85 0.0 0.03
07 04:35 Calm 7.00 Light Rain BKN009 OVC016 62.6 62.6 100% 29.84 0.0
07 04:15 W 5 7.00 Light Rain BKN006 OVC011 62.6 62.6 100% 29.85 0.0
07 03:55 SW 3 9.00 Overcast OVC007 62.6 62.6 100% 29.85 0.0 0.01
07 03:35 Calm 10.00 Overcast BKN008 OVC012 62.6 62.6 100% 29.86 0.0
07 03:15 W 3 10.00 Overcast OVC012 62.6 62.6 100% 29.85 0.0
07 02:55 Calm 9.00 Overcast BKN013 BKN018 OVC027 62.6 62.6 100% 29.86 0.0 0.05
07 02:35 Calm 8.00 Light Rain FEW017 OVC026 62.6 62.6 100% 29.86 0.0
07 02:15 Calm 5.00 Light Rain Fog/Mist OVC024 62.6 62.6 100% 29.87 0.0
07 01:55 Calm 9.00 Light Rain BKN018 OVC023 62.6 62.6 100% 29.88 0.0
07 01:35 Calm 10.00 Overcast OVC017 62.6 62.6 100% 29.88 0.0
07 01:15 Calm 10.00 Overcast OVC017 62.6 62.6 100% 29.88 0.0
07 00:35 Calm 9.00 Overcast OVC014 62.6 62.6 100% 29.9 0.0
07 00:15 Calm 8.00 Light Rain OVC014 62.6 62.6 100% 29.92 0.0
06 23:15 Calm 10.00 Overcast OVC017 62.6 62.6 100% 29.92 0.0
06 22:55 Calm 10.00 Mostly Cloudy BKN018 BKN033 BKN042 62.6 62.6 100% 29.91 0.0 0.07
06 22:35 Calm 10.00 Mostly Cloudy SCT015 SCT034 BKN075 62.6 62.6 100% 29.9 0.0
06 22:15 NE 3 5.00 Light Rain Fog/Mist SCT012 BKN019 OVC070 62.6 62.6 100% 29.91 0.0
06 21:55 W 6 2.00 Heavy Rain Fog/Mist FEW011 OVC020 62.6 62.6 100% 29.96 0.0 0.06
06 21:35 NW 5 6.00 Light Rain Fog/Mist BKN023 OVC029 62.6 62.6 100% 29.94 0.0
06 21:15 Calm 7.00 Overcast BKN029 OVC037 62.6 60.8 94% 29.93 0.0
06 20:55 Calm 4.00 Light Rain Fog/Mist SCT028 OVC036 64.4 60.8 88% 29.92 0.0 0.01
06 20:35 NW 7 10.00 Light Drizzle OVC032 64.4 60.8 88% 29.92 0.0
06 20:15 NW 3 10.00 Light Drizzle OVC033 66.2 60.8 83% 29.89 0.0
06 19:55 W 5 G 12 10.00 Overcast OVC034 66.2 60.8 83% 29.89 0.0 0.02
Date Time (edt) Wind (mph) Vis. (mi.) Weather Sky Cond. Air Dwpt Max. Min. Relative Humidity Wind Chill (°F) Heat Index (°F) altimeter (in) sea level (mb) 1 hr 3 hr 6 hr
6 hour
Temperature (ºF) Pressure Precipitation (in)